Location: Wildlife_Club
(35.6000°N, 81.4330°W)
Time: 10:01:59
(UTC-04:00)

Iridium 56 - Visible Passes

Search period start: 02 September 2014 00:00
Search period end: 12 September 2014 00:00
Orbit: 776 x 779 km, 86.4° (Epoch: 01 September)

Date Brightness Start Highest point End Pass type
(mag) Time Alt. Az. Time Alt. Az. Time Alt. Az.
03 Sep 6.6 05:59:09 10° SSE 06:04:08 49° E 06:09:09 10° NNE visible
04 Sep 7.8 05:26:35 10° SE 05:30:48 26° E 05:35:03 10° NNE visible
05 Sep 8.5 04:55:09 10° ESE 04:57:36 13° E 05:00:02 10° NE visible
05 Sep 5.6 06:32:37 10° SSW 06:37:43 57° W 06:42:51 10° N visible
06 Sep 5.8 05:59:01 10° S 06:04:12 74° E 06:09:24 10° N visible
07 Sep 7.0 05:26:02 10° SSE 05:30:48 38° E 05:35:34 10° NNE visible
08 Sep 8.0 04:53:48 10° SE 04:57:31 20° E 05:01:13 10° NE visible
08 Sep 6.0 06:33:04 10° SSW 06:37:53 38° W 06:42:44 10° NNW visible
09 Sep 5.4 05:59:07 10° S 06:04:18 75° W 06:09:31 10° N visible
10 Sep 6.2 05:25:45 10° SSE 05:30:49 57° E 05:35:55 10° N visible
11 Sep 7.4 04:53:02 10° SE 04:57:28 29° E 05:01:55 10° NNE visible
11 Sep 6.5 06:33:48 10° SW 06:38:06 26° W 06:42:26 10° NNW visible
